This is the latest recevied weather packets stored in our database for station/object KE4EST. If no packets are shown the sender has not sent any weather packets the latest 10 day(s).
| Time | Temp. | Humidity | Pressure | Rain* | Wind** | Luminosity | Snow |
|---|---|---|---|---|---|---|---|
| 1777668391 | 17.78° C | 51% | 1013.3 hPa | 0 mm | - | 139 W/m² | - |
| 1777668087 | 17.78° C | 53% | 1013.4 hPa | 0 mm | - | 155 W/m² | - |
| 1777667783 | 17.78° C | 53% | 1013.4 hPa | 0 mm | - | 168 W/m² | - |
| 1777667481 | 17.78° C | 51% | 1013.5 hPa | 0 mm | - | 169 W/m² | - |
| 1777667178 | 17.78° C | 50% | 1013.4 hPa | 0 mm | - | 161 W/m² | - |
| 1777666875 | 17.78° C | 51% | 1013.6 hPa | 0 mm | - | 190 W/m² | - |
| 1777666572 | 17.78° C | 50% | 1013.6 hPa | 0 mm | - | 222 W/m² | - |
| 1777666268 | 18.89° C | 49% | 1013.6 hPa | 0 mm | - | 206 W/m² | - |
| 1777665965 | 18.89° C | 51% | 1013.7 hPa | 0 mm | - | 256 W/m² | - |
| 1777665663 | 18.33° C | 51% | 1013.7 hPa | 0 mm | - | 259 W/m² | - |
| 1777665360 | 17.78° C | 52% | 1013.5 hPa | 0 mm | - | 222 W/m² | - |
| 1777664751 | 18.33° C | 50% | 1013.8 hPa | 0 mm | - | 146 W/m² | - |
| 1777664447 | 18.33° C | 52% | 1014.1 hPa | 0 mm | - | 176 W/m² | - |
| 1777664144 | 18.33° C | 52% | 1013.9 hPa | 0 mm | - | 187 W/m² | - |
| 1777663843 | 18.33° C | 49% | 1013.7 hPa | 0 mm | - | 207 W/m² | - |
| 1777663539 | 18.33° C | 50% | 1013.9 hPa | 0 mm | - | 210 W/m² | - |
| 1777662934 | 18.89° C | 50% | 1013.6 hPa | 0 mm | - | 211 W/m² | - |
| 1777662327 | 18.33° C | 48% | 1013.7 hPa | 0 mm | - | 177 W/m² | - |
| 1777661416 | 18.89° C | 51% | 1013.8 hPa | 0 mm | - | 199 W/m² | - |
| 1777660812 | 19.44° C | 53% | 1013.8 hPa | 0 mm | - | 273 W/m² | - |
| 1777660509 | 19.44° C | 56% | 1014.1 hPa | 0 mm | - | 231 W/m² | - |
| 1777659296 | 18.89° C | 53% | 1014.3 hPa | 0 mm | - | 233 W/m² | - |
| 1777658993 | 19.44° C | 50% | 1014.3 hPa | 0 mm | - | 229 W/m² | - |
| 1777657780 | 19.44° C | 51% | 1014.3 hPa | 0 mm | - | 358 W/m² | - |
| 1777656873 | 18.33° C | 55% | 1014.2 hPa | 0 mm | - | 250 W/m² | - |
* Rain latest hour (hover to see other rain measurements)
** Current wind speed in m/s (hover to see current wind gust speed)